User: anonymous   Login
Location: Lobos
(35.3000°S, 59.0940°W)
Time: 01:35:44
(UTC-03:00)
Language:

EO-79 - Orbit

View from above orbital plane
View from above orbital plane
View from above satellite
View from above satellite

Ground track
Ground track

The orbit data is extracted from the following two-line orbital elements,

1 40025U 14033R   20330.51421585  .00000512  00000-0  60047-4 0  9990
2 40025  97.9210 254.8291 0013500 125.3209 234.9272 14.89246949349576
Epoch (UTC): 25 November 2020 12:20:28
Eccentricity: 0.0013500
inclination: 97.9210°
perigee height: 591 km
apogee height: 610 km
right ascension of ascending node: 254.8291°
argument of perigee: 125.3209°
revolutions per day: 14.89246949
mean anomaly at epoch: 234.9272°
orbit number at epoch: 34957

The dashed part of the orbit path shows where the satellite is in the earth's shadow,  

DLR